(125222) = 2001 UW156

Discovered at Socorro on 2001-10-23 by LINEAR.

Orbit

Orbit type: Main Belt

Note: WebGL enabled browser required.

epoch2024-03-31.0
epoch JD2460400.5
perihelion date2021-07-21.85579
perihelion JD2459417.35579
argument of perihelion (°)142.70025
ascending node (°)192.88678
inclination (°)5.09933
eccentricity0.2402959
perihelion distance (AU)1.9320446
Tisserand w.r.t. Jupiter3.4
ΔV w.r.t. Earth (km/sec)8.9
semimajor axis (AU)2.5431539
mean anomaly (°)238.92528
mean daily motion (°/day)0.24302160
aphelion distance (AU)3.154
period (years)4.06
P-vector [x]0.91005524
P-vector [y]-0.39848479
P-vector [z]-0.11405850
Q-vector [x]0.41401270
Q-vector [y]0.86075870
Q-vector [z]0.29612149
absolute magnitude16.39
phase slope0.15
uncertainty0
referenceMPEC 2024-E179
observations used898
oppositions19
arc length (days)10145
first opposition used1996
last opposition used2024
residual rms (arc-secs)0.71
perturbers coarse indicatorM-v
perturbers precise indicator003Ek
first observation date used1996-05-12.0
last observation date used2024-02-20.0
computer nameMPCLINUX
JD of orbit computation2456731.577999
perihelion JD uncertainty (days)9.0072E-05
argument of perihelion uncertainty (°)5.6782E-05
ascending node uncertainty (°)5.1335E-05
inclination uncertainty (°)9.1077E-06
eccentricity uncertainty 6.1072E-08
perihelion distance uncertainty (AU)1.5887E-07
Minimum Orbit Intersection Distances (in AU)
for orbit epoch: 2460400.5, reference: E2024-GB3
Mercury1.53893
Venus1.21151
Earth0.92551
Mars0.5658
Jupiter2.24519
Saturn6.09954
Uranus15.2973
Neptune27.2108

Observations

918 total observations over interval: 1996 05 12.23332 – 2024 02 20.648823
These data are available for download (format description).

Date (UT) J2000 RA J2000 Dec Magn Location Ref
1996 05 12.23332 15 22 34.54 -13 08 44.4   691 – Steward Observatory, Kitt Peak-Spacewatch MPS 46658
1996 05 12.26241 15 22 32.82 -13 08 34.9 18.9 V 691 – Steward Observatory, Kitt Peak-Spacewatch MPS 46658
1996 05 12.28430 15 22 31.53 -13 08 27.4   691 – Steward Observatory, Kitt Peak-Spacewatch MPS 46658
1997 11 29.16568 04 03 52.11 +14 00 48.6 18.9   704 – Lincoln Laboratory ETS, New Mexico MPS 46658
1997 11 29.18501 04 03 50.92 +14 00 44.2 18.9   704 – Lincoln Laboratory ETS, New Mexico MPS 46658
1997 11 29.20372 04 03 49.78 +14 00 39.9 19.3   704 – Lincoln Laboratory ETS, New Mexico MPS 46658
1997 11 29.22241 04 03 48.56 +14 00 35.6 19.2   704 – Lincoln Laboratory ETS, New Mexico MPS 46658
2001 08 22.41804 03 36 44.07 +17 53 54.4 20.0   704 – Lincoln Laboratory ETS, New Mexico MPS 44623
2001 08 22.43033 03 36 44.95 +17 53 56.1 19.8   704 – Lincoln Laboratory ETS, New Mexico MPS 44623
2001 08 22.44287 03 36 45.86 +17 53 57.3 19.9   704 – Lincoln Laboratory ETS, New Mexico MPS 44623
2001 10 23.43784 03 57 18.25 +15 33 50.6 20.0   704 – Lincoln Laboratory ETS, New Mexico MPS 41241
2001 10 23.45431 03 57 17.55 +15 33 46.6 19.6   704 – Lincoln Laboratory ETS, New Mexico MPS 41241
2001 10 23.47079 03 57 16.83 +15 33 40.7 19.6   704 – Lincoln Laboratory ETS, New Mexico MPS 41241
2001 10 23.48726 03 57 16.14 +15 33 35.4 19.4   704 – Lincoln Laboratory ETS, New Mexico MPS 41241
2001 10 24.40602 03 56 38.82 +15 28 39.1 19.5   704 – Lincoln Laboratory ETS, New Mexico MPS 41241
2001 10 24.42239 03 56 38.04 +15 28 33.6 19.7   704 – Lincoln Laboratory ETS, New Mexico MPS 41241
2001 10 24.43877 03 56 37.33 +15 28 28.6 19.6   704 – Lincoln Laboratory ETS, New Mexico MPS 41241
2001 10 24.45516 03 56 36.61 +15 28 22.3 19.8   704 – Lincoln Laboratory ETS, New Mexico MPS 41241
2001 10 24.47169 03 56 35.94 +15 28 17.1 19.6   704 – Lincoln Laboratory ETS, New Mexico MPS 41241
2001 10 25.47417 03 55 53.41 +15 22 50.0 20.2   644 – Palomar Mountain/NEAT MPS 42121
2001 10 25.48462 03 55 52.94 +15 22 46.2 20.1   644 – Palomar Mountain/NEAT MPS 42121
2001 10 25.49514 03 55 52.46 +15 22 43.0 20.3   644 – Palomar Mountain/NEAT MPS 42121
2001 11 09.35507 03 42 55.90 +13 58 42.9 18.9   704 – Lincoln Laboratory ETS, New Mexico MPS 44623
2001 11 09.36983 03 42 54.98 +13 58 37.3 19.0   704 – Lincoln Laboratory ETS, New Mexico MPS 44623
2001 11 09.38391 03 42 54.18 +13 58 32.8 19.0   704 – Lincoln Laboratory ETS, New Mexico MPS 44623
2001 11 09.39975 03 42 53.27 +13 58 26.4 19.1   704 – Lincoln Laboratory ETS, New Mexico MPS 44623
2001 11 09.41386 03 42 52.46 +13 58 21.5 19.0   704 – Lincoln Laboratory ETS, New Mexico MPS 44623
2001 11 15.50036 03 36 50.32 +13 24 53.2 18.9   644 – Palomar Mountain/NEAT MPS 44623
2001 11 15.51092 03 36 49.71 +13 24 49.5 19.3   644 – Palomar Mountain/NEAT MPS 44623
2001 11 15.52304 03 36 48.95 +13 24 45.4 19.2   644 – Palomar Mountain/NEAT MPS 44623
2001 11 17.30265 03 35 03.24 +13 15 25.0 19.6   704 – Lincoln Laboratory ETS, New Mexico MPS 42121
2001 11 17.31726 03 35 02.35 +13 15 20.4 19.9   704 – Lincoln Laboratory ETS, New Mexico MPS 42121
2001 11 17.33270 03 35 01.37 +13 15 15.0 19.6   704 – Lincoln Laboratory ETS, New Mexico MPS 42121
2001 11 17.34750 03 35 00.49 +13 15 10.8 19.7   704 – Lincoln Laboratory ETS, New Mexico MPS 42121
2001 11 18.28704 03 34 04.89 +13 10 21.3 19.2   704 – Lincoln Laboratory ETS, New Mexico MPS 42121
2001 11 18.28747 03 34 04.91 +13 10 21.1 19.0   704 – Lincoln Laboratory ETS, New Mexico MPS 42121
2001 11 18.30203 03 34 03.95 +13 10 16.7 19.2   704 – Lincoln Laboratory ETS, New Mexico MPS 42121
2001 11 18.30247 03 34 03.94 +13 10 16.3 19.5   704 – Lincoln Laboratory ETS, New Mexico MPS 42121
2001 11 18.30595 03 34 03.66 +13 10 15.8 18.7   704 – Lincoln Laboratory ETS, New Mexico MPS 42121
2001 11 18.30639 03 34 03.69 +13 10 16.5 18.5   704 – Lincoln Laboratory ETS, New Mexico MPS 42121
2001 11 18.31704 03 34 03.04 +13 10 12.3 19.3   704 – Lincoln Laboratory ETS, New Mexico MPS 42121
2001 11 18.31747 03 34 03.03 +13 10 12.9 19.6   704 – Lincoln Laboratory ETS, New Mexico MPS 42121
2001 11 18.32126 03 34 02.91 +13 10 10.5 19.5   704 – Lincoln Laboratory ETS, New Mexico MPS 42121
2001 11 18.33247 03 34 02.09 +13 10 08.6 19.1   704 – Lincoln Laboratory ETS, New Mexico MPS 42121
2001 11 18.33580 03 34 01.92 +13 10 06.0 19.3   704 – Lincoln Laboratory ETS, New Mexico MPS 42121
2001 11 18.33625 03 34 01.94 +13 10 05.6 19.5   704 – Lincoln Laboratory ETS, New Mexico MPS 42121
2001 11 18.34704 03 34 01.24 +13 10 03.3 19.3   704 – Lincoln Laboratory ETS, New Mexico MPS 42121
2001 11 18.35054 03 34 01.02 +13 10 02.0 19.1   704 – Lincoln Laboratory ETS, New Mexico MPS 42121
2001 11 18.35098 03 34 01.05 +13 10 02.3 19.2   704 – Lincoln Laboratory ETS, New Mexico MPS 42121
2001 11 18.36539 03 34 00.02 +13 09 57.4 19.3   704 – Lincoln Laboratory ETS, New Mexico MPS 42121
2001 11 18.36583 03 34 00.03 +13 09 56.3 19.1   704 – Lincoln Laboratory ETS, New Mexico MPS 42121
2001 11 19.24071 03 33 08.79 +13 05 29.9 18.5 R 699 – Lowell Observatory-LONEOS MPS 44623
2001 11 19.26428 03 33 07.28 +13 05 24.9   699 – Lowell Observatory-LONEOS MPS 44623
2001 11 19.28797 03 33 05.85 +13 05 18.0   699 – Lowell Observatory-LONEOS MPS 44623
2001 11 19.31145 03 33 04.52 +13 05 10.6   699 – Lowell Observatory-LONEOS MPS 44623
2001 11 20.30276 03 32 06.43 +13 00 15.5 19.6   704 – Lincoln Laboratory ETS, New Mexico MPS 44623
2001 11 20.33332 03 32 04.57 +13 00 07.3 19.1   704 – Lincoln Laboratory ETS, New Mexico MPS 44623
2001 11 20.34837 03 32 03.66 +13 00 01.7 19.4   704 – Lincoln Laboratory ETS, New Mexico MPS 44623
2001 11 20.50862 03 31 54.35 +12 59 17.8 20.5   608 – Haleakala-AMOS MPS 44623
2001 11 20.51919 03 31 53.69 +12 59 13.1 20.5   608 – Haleakala-AMOS MPS 44623
2001 11 20.52963 03 31 53.06 +12 59 09.7 20.4   608 – Haleakala-AMOS MPS 44623
2001 12 11.21986 03 15 22.99 +11 45 56.9 19.4   704 – Lincoln Laboratory ETS, New Mexico MPS 44623
2001 12 11.23508 03 15 22.42 +11 45 55.4 20.0   704 – Lincoln Laboratory ETS, New Mexico MPS 44623
2001 12 11.25032 03 15 21.91 +11 45 53.6 19.8   704 – Lincoln Laboratory ETS, New Mexico MPS 44623
2001 12 11.26555 03 15 21.38 +11 45 52.4 19.7   704 – Lincoln Laboratory ETS, New Mexico MPS 44623
2001 12 11.28078 03 15 20.80 +11 45 49.4 20.1   704 – Lincoln Laboratory ETS, New Mexico MPS 44623
2004 04 19.31771 14 41 10.38 -12 14 19.6 20.5 V 291 – LPL/Spacewatch II MPS 105061
2004 04 19.32212 14 41 10.15 -12 14 17.9 20.4 V 291 – LPL/Spacewatch II MPS 105061
2004 04 19.32677 14 41 09.91 -12 14 16.4 20.3 V 291 – LPL/Spacewatch II MPS 105061
2004 05 14.21688 14 19 01.10 -09 41 48.4 19.8 V 691 – Steward Observatory, Kitt Peak-Spacewatch MPS 107365
2004 05 14.24611 14 18 59.58 -09 41 38.5 20.1 V 691 – Steward Observatory, Kitt Peak-Spacewatch MPS 107365
2004 05 14.28068 14 18 57.77 -09 41 27.1 20.2 V 691 – Steward Observatory, Kitt Peak-Spacewatch MPS 107365
2004 05 21.29255 14 13 24.83 -09 04 58.9 20.0   704 – Lincoln Laboratory ETS, New Mexico MPS 108089
2004 05 21.30177 14 13 24.37 -09 04 57.0 20.0   704 – Lincoln Laboratory ETS, New Mexico MPS 108089
2004 05 21.31097 14 13 23.88 -09 04 54.4 20.5   704 – Lincoln Laboratory ETS, New Mexico MPS 108089
2005 08 01.04671 02 38 28.32 +15 36 07.8 19.8   599 – Campo Imperatore-CINEOS MPS 138858
2005 08 01.05444 02 38 29.02 +15 36 10.0 19.6   599 – Campo Imperatore-CINEOS MPS 138858
2005 08 01.06220 02 38 29.70 +15 36 12.5 20.0   599 – Campo Imperatore-CINEOS MPS 138858
2005 08 01.06993 02 38 30.37 +15 36 14.8 19.8   599 – Campo Imperatore-CINEOS MPS 138858
2005 09 08.37766 03 20 34.27 +16 46 47.1 19.9   704 – Lincoln Laboratory ETS, New Mexico MPS 141023
2005 09 08.40011 03 20 34.93 +16 46 45.9 20.0   704 – Lincoln Laboratory ETS, New Mexico MPS 141023
2005 09 08.41142 03 20 35.34 +16 46 45.6 20.0   704 – Lincoln Laboratory ETS, New Mexico MPS 141023
2005 10 12.30904 03 21 37.02 +14 46 11.0 18.5   704 – Lincoln Laboratory ETS, New Mexico MPS 143700
2005 10 12.31995 03 21 36.74 +14 46 07.5 19.4   704 – Lincoln Laboratory ETS, New Mexico MPS 143700
2005 10 12.33087 03 21 36.32 +14 46 03.7 19.3   704 – Lincoln Laboratory ETS, New Mexico MPS 143700
